Flag for Honduras Weather past 2 weeks in Choloma, Honduras

Now
81 °F

Passing clouds.


Feels Like: 85 °F
Forecast: 76 / 90 °F
Wind: No wind

Location: La Mesa San Pedro Sula

Current Time: Apr 18, 2015 at 9:42:27 PM

Latest Report: Apr 18, 2015 at 9:00 PM


Visibility: N/A

Pressure: 29.83 "Hg

Humidity: 79%

Dew point: 73 °F

Location of CholomaLocation

Historic Weather in Choloma — Graph

°F

Choloma temperature yesterday

Maximum temperature yesterday: 97 °F (at 1:00 PM)
Minimum temperature yesterday: 75 °F (at 3:00 AM)
Average temperature yesterday: 84 °F

Past Weeks' High & Low Weather Summary

 TemperatureHumidityPressure
High99 °F (Apr 18, 2:00 PM)100% (Apr 3, 8:00 PM)30.01 "Hg (Apr 3, 8:00 PM)
Low73 °F (Apr 6, 4:00 AM)44% (Apr 17, 1:00 PM)29.53 "Hg (Apr 17, 2:00 PM)
Average82 °F84%29.91 "Hg
* Reported Apr 3 8:00 PM — Apr 18 8:00 PM, Choloma, Weather by CustomWeather, © 2015

Note: Actual official high and low records may vary slightly from our data, if they occured in-between our weather recording intervals... More about our weather records

Advertising

Choloma weather history for previous 24 hours

 ConditionsComfort  
Time TempWeatherWind HumidityBarometerVisibility
8:00 PM
Sat, Apr 18
81 °FPassing clouds.7 mph79%29.80 "HgN/A
7:00 PM82 °FPassing clouds.9 mph79%29.80 "HgN/A
6:00 PM84 °FScattered clouds.14 mph79%29.74 "HgN/A
5:00 PM88 °FScattered clouds.12 mph75%29.74 "HgN/A
4:00 PM91 °FScattered clouds.14 mph67%29.71 "HgN/A
3:00 PM95 °FPartly sunny.16 mph60%29.71 "HgN/A
2:00 PM99 °FPassing clouds.10 mph44%29.74 "HgN/A
1:00 PM97 °FPassing clouds.8 mph44%29.77 "HgN/A
12:00 PM97 °FPassing clouds.3 mph44%29.83 "HgN/A
11:00 AM95 °FPassing clouds.6 mph47%29.86 "HgN/A
10:00 AM91 °FScattered clouds.8 mph56%29.86 "HgN/A
9:00 AM88 °FScattered clouds.8 mph62%29.89 "HgN/A
8:00 AM81 °FPassing clouds.No wind84%29.89 "HgN/A
7:00 AM75 °FPassing clouds.No wind100%29.89 "HgN/A
6:00 AM75 °FScattered clouds.3 mph94%29.86 "HgN/A
5:00 AM73 °FPassing clouds.3 mph100%29.86 "HgN/A
3:00 AM73 °FPassing clouds.2 mph100%29.86 "HgN/A
12:00 AM77 °FPassing clouds.No wind100%29.89 "HgN/A
11:00 PM
Fri, Apr 17
79 °FPassing clouds.3 mph94%29.89 "HgN/A
10:00 PM79 °FPassing clouds.3 mph94%29.89 "HgN/A
9:00 PM81 °FPassing clouds.7 mph89%29.89 "HgN/A
Weather by CustomWeather, © 2015

See weather overviewHow to use our weather pages